Showing default

YUNYAO-1 20, 58760

Orbit data source: Space-Track

YUNYAO-1 20, 58760 is a payload satellite owned by Yunyao yuhang (CN) in LEO that was launched on Thu, 11 Jan 2024 UTC via a YINLI-1 launch vehicle from the Yellow Sea Launch Area, China (YSLA). Payload-class satellites include a variety of spacecraft equipped with specific instruments for various scientific and technological missions. These include communications satellites like Starlink; space stations such as the ISS; scientific satellites like the Hubble; Earth observation satellites from companies like Planet Labs, Umbra, and HawkEye 360; GPS; miniature CubeSats for education and research; and military/defense satellites.

Loading next visibility...
Identifier
58760, 2024-009C
Orbit
LEO
Country
Flag of CNCN / PRC
Related business
Manufacturer
Changguang WJ
Mission
Operational Commercial Meteo Radio Occ.
Bus & Motor
YY-1, Unknown motor
Mass
~500 kg wet, ~500 kg dry
Launch date (UTC)
2024-01-11 (2 years ago)
Launch vehicle
YINLI-1
Launch site
Yellow Sea Launch Area, China (YSLA)
Object type
Payload
Rocket body
Debris
Shape & HBR
Box + 1 Pan, 2.5 m
Radar Cross Section
5.339 m², Medium (>0.1 m² and < 1m²)

Expand to show TLE details & history
Last TLE update: 15 hours ago

TLE from 15 hours ago
0 YUNYAO-1 20
1 58760U 24009C   25349.00637242  .00008635  00000-0  48543-3 0  9997
2 58760  49.9801 343.7905 0003828 275.8238  84.2276 15.13963038106742
Epoch: 2025-12-15T00:09Z
TLE epoch observation values (Epoch: 2025-12-15T00:09:10.577Z)
Latitude
-0.00003°
Longitude
-102.41473°
Altitude
524.413 km
Speed
7.602 km/s
True Right ascension
22h 55m 09s
True Declination
0° 00' 00"
Sunlit
Object was in daylight at epoch
Visualization orbit readout
Latitude
Unknown
Longitude
Unknown
Altitude
Unknown
Speed
Unknown
Apparent Right ascension
Unknown
Apparent Declination
Unknown
Sunlit
N/A
Visualization observer readout
Local Sidereal Time
13:24:33
Azimuth
Unknown
Elevation
Unknown
Doppler factor
Unknown
Orbital elements
Apogee altitude
527.543 km
Perigee altitude
522.258 km
Semi-major axis
6,903.037 km
Eccentricity
0.00038
Inclination
49.9801°
RAAN
343.7905°
Arg. of periapsis
275.8238°
True anomaly
84.27125°
Mean anomaly
84.2276°
Eccentric anomaly
84.24942°
Mean motion
3.78428 °/min
Orbital period
95.13 mins
BSTAR
0.00048543
Loading maneuver chart data...
Computing Atmospheric mass density...
Loading historical data...
Loading historical data...
Loading historical data...
Loading historical data...
Loading historical data...
Loading historical data...
Loading historical data...
Other satellites on launch #9 in the year 2024 (2024-01-11 UTC)

Documentation

Showing up to 5 results
|